Regional Weather Roundup
Issued by NWS

Home | Current Version | Previous Version | Text Only | Print | Product List | Glossary Off
Versions: 1 2 3 4 5 6 7 8 9 10 11 12 13 14 15 16 17 18 19 20 21 22 23 24 25 26 27 28 29 30 31 32 33 34 35 36 37 38 39 40 41 42 43 44 45 46 47 48 49 50

000
ASUS45 KCYS 011810
RWRWY

WYOMING REGIONAL WEATHER ROUNDUP
NATIONAL WEATHER SERVICE CHEYENNE WY
1200 PM MDT MON SEP 01 2014

NOTE:  "FAIR" INDICATES FEW OR NO CLOUDS BELOW 12,000 FEET
WITH NO SIGNIFICANT WEATHER AND/OR OBSTRUCTIONS TO VISIBILITY.

WYZ001-011900-
YELLOWSTONE NATIONAL PARK

CITY           SKY/WX    TMP DP  RH WIND       PRES   REMARKS
LK YELLOWSTONE   N/A     50  31  48 VRB5      30.18S
6HR MIN TEMP:  37; 6HR MAX TEMP:  52;

W YELLOWSTONE  NOT AVBL

$$
WYZ002>013-054>058-071-098>099-011900-
NORTHERN WYOMING

CITY           SKY/WX    TMP DP  RH WIND       PRES   REMARKS
JACKSON        MOSUNNY   61  37  41 S16G22    30.13S
CODY             N/A    N/A N/A N/A MISG        N/A
GREYBULL       MOSUNNY   65  46  50 NW8       30.00F
6HR MIN TEMP:  52; 6HR MAX TEMP:  65;

WORLAND        MOSUNNY   64  45  49 N6        30.01S
6HR MIN TEMP:  51; 6HR MAX TEMP:  64; 6HR PCP:  0.03;

SHERIDAN       CLOUDY    56  44  64 N5        30.04R
6HR MIN TEMP:  51; 6HR MAX TEMP:  59; 6HR PCP: TRACE;

BUFFALO        PTSUNNY   59  43  55 N8        30.04F
6HR MIN TEMP:  49; 6HR MAX TEMP:  59;

GILLETTE       CLOUDY    59  45  59 NW13      30.02R
6HR MIN TEMP:  51; 6HR MAX TEMP:  61; 6HR PCP: TRACE;

HULETT         CLOUDY    63  46  55 MISG      30.01
NEWCASTLE      FAIR      63  43  48 N6        30.00

$$
WYZ014>020-022>026-101>103-011900-
CENTRAL WYOMING

CITY           SKY/WX    TMP DP  RH WIND       PRES   REMARKS
BIG PINEY      SUNNY     58  32  37 VRB3      30.16S
6HR MIN TEMP:  32; 6HR MAX TEMP:  59;

PINEDALE       CLEAR     57  32  38 W13G21    30.17S
DUBOIS         MOCLDY    57  27  30 W22G32    30.10S
LANDER         SUNNY     66  37  34 N8        30.02F
6HR MIN TEMP:  46; 6HR MAX TEMP:  66;

RIVERTON       SUNNY     65  37  35 E5        30.04S
6HR MIN TEMP:  44; 6HR MAX TEMP:  65;

CASPER         MOSUNNY   70  34  26 W13G21    30.01F
6HR MIN TEMP:  43; 6HR MAX TEMP:  70;

DOUGLAS        MOSUNNY   67  43  41 VRB6      30.01F
6HR MIN TEMP:  44; 6HR MAX TEMP:  69;


$$
WYZ021-027>030-104>119-011900-
SOUTHERN WYOMING

CITY           SKY/WX    TMP DP  RH WIND       PRES   REMARKS
EVANSTON       MOSUNNY   65  34  31 W17G30    30.20R
6HR MIN TEMP:  41; 6HR MAX TEMP:  65;

KEMMERER       CLEAR     59  32  36 W20G25    30.20R
FORT BRIDGER   FAIR      67  33  28 W21G32    30.21S
ROCK SPRINGS   SUNNY     65  32  29 W25G32    30.14F
6HR MIN TEMP:  41; 6HR MAX TEMP:  65;

DIXON          FAIR      66  36  32 SW14G21   30.17F
RAWLINS        MOSUNNY   64  31  28 W26G36    30.11F
6HR MIN TEMP:  45; 6HR MAX TEMP:  65;

SARATOGA       FAIR      63  32  31 W22G29    30.15F
LARAMIE        MOSUNNY   61  30  31 W22G32    30.13S
6HR MIN TEMP:  42; 6HR MAX TEMP:  63;

CHEYENNE       MOSUNNY   67  30  25 W10G20    30.09F
6HR MIN TEMP:  45; 6HR MAX TEMP:  68;

TORRINGTON     SUNNY     74  42  31 W10G22    29.97F
6HR MIN TEMP:  44; 6HR MAX TEMP:  74;

PINE BLUFFS    FAIR      68  45  42 SW7G20    30.05F

$$



USA.gov is the U.S. government's official web portal to all federal, state and local government web resources and services.